Vorticity
1 2 -5 4 2 3 -3 7 -0 -2 3 -6 10 0 21 -7 41 6 5 10 5 7 5 -2 11 1 6 17 2 3 5 7 11 9 7 7 5 3 3 4 5 4 3 4 4 3 2 3 4
2 -1 3 3 7 2 -1 -5 -16 -4 -2 18 6 28 -21 -22 25 2 4 8 6 7 5 8 4 7 1 2 15 3 6 9 6 4 5 6 7 6 6 5 4 3 3 4 3 3 3 2 3
13 1 6 6 -9 5 1 5 11 -5 2 4 10 2 15 -0 19 -10 6 8 8 4 6 7 6 6 5 -2 -3 14 15 2 12 8 5 7 4 3 6 6 5 5 4 4 5 4 4 3 4
7 8 2 -3 7 3 -2 -1 1 1 7 6 7 11 8 8 9 -7 7 5 7 5 7 11 2 6 7 10 10 17 16 7 9 9 7 10 23 8 14 8 -5 7 6 6 6 5 5 4 3
1 0 9 -11 10 3 8 -2 -8 -7 6 6 10 12 9 9 8 7 1 7 4 6 5 5 8 6 9 4 21 16 9 8 11 9 7 5 16 -4 4 11 30 5 10 6 5 4 4 4 5
8 -4 -2 4 7 14 3 -3 12 9 -7 5 10 14 13 6 16 7 11 2 5 5 6 10 13 5 4 4 21 3 2 3 6 7 11 1 3 13 14 27 27 -1 6 3 -1 1 5 4 3
4 -1 0 3 -2 1 13 11 0 7 4 6 4 9 18 -6 16 6 11 0 7 5 13 13 11 21 16 3 8 9 -6 8 12 13 21 23 19 11 15 12 14 19 11 4 4 6 1 7 19
4 7 3 15 -8 4 2 10 -1 3 22 1 2 11 9 6 14 5 4 8 4 3 3 12 12 1 16 12 11 20 10 23 5 27 12 9 8 4 10 8 10 4 6 16 19 24 12 11 7
5 8 0 6 -1 2 2 3 6 7 8 -0 7 10 7 9 4 8 9 9 5 20 15 3 13 7 2 6 19 6 4 9 -1 12 -4 4 6 6 12 -3 2 4 2 8 8 8 6 3 4
5 6 2 3 5 4 3 10 5 11 5 -1 19 11 8 5 9 7 8 6 6 5 -3 1 7 6 8 -0 17 -18 9 5 11 10 4 11 1 3 4 7 10 7 4 3 3 3 4 4 1
4 5 5 1 5 6 0 8 4 8 7 2 17 9 6 7 9 8 7 7 11 10 12 -6 8 6 2 2 9 8 10 17 7 -1 7 7 8 9 9 7 8 11 11 9 9 10 9 9 8
5 4 2 0 3 3 7 -1 8 3 12 11 14 8 12 10 10 8 12 5 14 8 5 -5 13 18 15 17 12 9 7 11 7 3 1 3 6 6 9 8 7 7 6 7 7 7 7 9 9
5 3 3 2 2 7 -0 21 -8 12 10 16 11 6 9 8 9 10 9 11 7 4 6 13 14 -3 3 6 11 12 10 16 -1 14 2 5 5 8 7 7 6 7 7 6 8 8 8 7 7
4 4 2 1 3 2 7 20 -4 7 14 15 11 7 7 12 9 11 11 5 7 13 8 10 1 5 9 13 22 17 17 9 11 6 14 6 5 4 6 5 5 5 6 5 6 6 8 10 10
4 3 3 -0 4 8 -2 12 6 6 11 11 14 9 6 7 15 11 5 8 9 7 10 3 4 8 10 9 8 13 20 14 22 14 11 5 6 5 5 5 4 5 5 5 5 4 6 9 10
4 3 3 2 5 4 8 5 6 0 14 9 17 9 5 6 16 9 10 7 5 8 4 5 4 12 10 2 3 5 8 6 7 9 8 5 6 5 4 4 4 6 7 7 7 7 8 10 10
3 3 3 2 5 1 8 8 1 -4 15 11 13 8 6 6 14 8 8 8 6 5 4 5 7 6 4 6 10 7 4 7 4 5 5 3 3 2 2 3 3 6 9 9 9 8 8 9 8
2 4 4 3 2 6 8 9 1 -2 10 8 12 6 5 8 13 9 3 7 4 7 5 4 6 7 5 12 8 7 7 6 6 6 2 2 2 3 4 6 6 6 9 7 10 7 8 9 5
4 6 4 4 4 9 15 -2 1 1 10 14 14 5 -0 16 10 9 6 7 5 6 3 5 6 4 6 9 5 6 7 6 5 1 2 3 5 7 8 8 5 10 8 8 8 7 7 10 6
3 4 5 5 8 10 5 2 -2 3 6 15 16 6 11 10 8 10 6 7 4 5 8 5 7 6 5 13 6 4 5 5 3 3 2 5 6 11 9 7 8 7 7 7 7 8 8 9 8
4 5 6 8 3 4 5 3 12 1 6 18 14 2 4 8 8 9 7 5 3 5 8 6 5 5 8 12 8 6 3 4 3 4 6 2 8 11 6 7 6 5 6 5 6 8 11 11 9
4 6 6 6 5 7 14 -4 12 8 2 19 12 3 5 10 10 8 6 4 6 8 2 2 6 10 10 11 9 9 8 6 6 8 4 5 16 6 7 5 5 4 4 4 5 6 9 9 12
6 6 7 6 6 6 -2 10 10 5 11 12 16 2 4 20 8 7 4 6 6 9 1 5 11 10 7 9 9 8 7 7 8 6 13 8 6 3 3 5 4 5 5 5 5 8 9 10 10
3 2 6 7 8 -1 15 19 6 4 12 8 14 5 13 6 8 7 6 7 6 4 4 6 12 9 10 10 10 10 9 10 13 15 7 5 3 4 3 3 4 4 4 4 5 6 10 9 10
11 11 12 12 5 7 17 8 -2 3 28 37 8 11 -0 -5 1 8 6 7 6 4 6 11 10 9 12 11 9 8 12 12 7 6 5 4 4 4 4 4 5 5 5 6 6 8 9 10 8
15 11 6 9 10 10 7 0 7 19 26 21 10 6 6 17 13 8 5 6 5 6 6 10 9 10 10 8 10 11 9 5 4 4 3 3 4 3 4 4 7 8 7 6 6 6 9 11 6
5 9 17 16 8 10 9 19 18 19 10 6 8 5 14 5 10 8 6 7 5 8 7 11 10 10 9 7 9 6 6 6 5 5 3 3 5 6 6 6 7 7 7 6 6 7 9 9 9
7 5 13 5 9 10 15 21 16 3 5 43 6 -1 6 4 7 8 9 8 9 9 11 10 11 11 9 6 6 5 4 4 4 6 5 5 5 5 5 5 5 6 7 7 8 9 11 8 10
9 4 9 13 8 2 12 11 26 4 -3 20 2 -6 19 2 -2 10 6 11 10 10 10 10 11 11 9 6 6 5 5 5 4 5 5 6 5 5 5 5 5 7 8 8 8 10 10 10 13
7 18 16 11 0 13 9 12 32 -12 11 -14 -9 3 3 -1 -2 7 6 11 11 11 11 9 8 8 6 6 6 7 7 5 6 7 6 6 5 4 4 4 7 8 9 8 8 9 10 14 9
Height
5927 5926 5924 5921 5922 5918 5917 5913 5915 5913 5913 5911 5909 5904 5903 5897 5895 5897 5892 5889 5885 5880 5878 5878 5877 5876 5875 5874 5873 5873 5872 5871 5871 5870 5869 5868 5866 5865 5864 5863 5863 5862 5861 5860 5860 5859 5858 5857 5857
5926 5925 5924 5921 5919 5915 5914 5912 5915 5916 5916 5912 5910 5907 5901 5897 5896 5893 5891 5887 5882 5879 5878 5878 5876 5875 5874 5873 5873 5873 5871 5870 5869 5869 5867 5865 5865 5864 5863 5863 5862 5861 5860 5858 5858 5857 5856 5855 5854
5927 5925 5925 5921 5919 5917 5914 5912 5914 5913 5910 5907 5905 5906 5903 5895 5893 5890 5887 5883 5880 5878 5877 5876 5875 5873 5872 5870 5870 5869 5869 5868 5867 5867 5867 5864 5863 5861 5860 5860 5859 5858 5857 5856 5855 5855 5854 5853 5851
5926 5926 5925 5923 5919 5915 5912 5911 5910 5908 5907 5905 5901 5902 5903 5897 5891 5888 5885 5882 5879 5878 5877 5876 5874 5871 5869 5868 5867 5866 5865 5865 5865 5863 5862 5861 5860 5859 5859 5858 5857 5855 5855 5854 5853 5853 5852 5851 5849
5927 5925 5922 5920 5918 5917 5914 5913 5912 5910 5908 5907 5900 5899 5899 5895 5890 5886 5885 5882 5878 5877 5875 5874 5872 5870 5868 5866 5865 5863 5862 5863 5862 5859 5858 5858 5857 5856 5855 5853 5851 5852 5852 5852 5851 5850 5849 5848 5846
5926 5922 5919 5918 5918 5916 5915 5915 5914 5911 5909 5905 5899 5898 5897 5894 5889 5885 5882 5879 5878 5876 5875 5872 5869 5868 5866 5864 5862 5860 5861 5860 5858 5856 5855 5854 5854 5853 5852 5850 5849 5849 5849 5848 5848 5847 5847 5844 5842
5925 5922 5921 5919 5918 5916 5913 5914 5913 5910 5908 5905 5899 5895 5894 5892 5888 5883 5881 5878 5876 5874 5871 5868 5867 5865 5862 5862 5862 5860 5859 5857 5855 5853 5851 5851 5850 5848 5848 5848 5847 5847 5847 5845 5844 5843 5843 5841 5838
5925 5924 5922 5917 5914 5916 5911 5909 5908 5909 5908 5904 5898 5894 5891 5888 5887 5885 5879 5877 5874 5873 5871 5867 5863 5861 5861 5861 5860 5858 5856 5855 5853 5851 5850 5849 5848 5847 5847 5847 5846 5845 5844 5842 5841 5839 5839 5838 5835
5926 5923 5920 5915 5913 5913 5909 5908 5908 5903 5902 5900 5896 5892 5888 5885 5884 5881 5878 5875 5874 5870 5869 5866 5864 5862 5860 5859 5858 5857 5854 5852 5851 5851 5850 5848 5846 5847 5846 5846 5845 5843 5841 5840 5838 5837 5836 5834 5831
5924 5922 5920 5916 5911 5909 5907 5909 5906 5906 5903 5899 5894 5889 5885 5884 5879 5877 5876 5874 5872 5870 5867 5865 5864 5862 5860 5860 5856 5854 5853 5852 5851 5850 5850 5847 5846 5845 5844 5843 5842 5841 5839 5837 5836 5834 5832 5830 5827
5920 5917 5915 5913 5912 5911 5909 5906 5904 5901 5898 5896 5891 5887 5883 5881 5878 5876 5875 5873 5871 5869 5867 5864 5861 5859 5858 5856 5854 5851 5850 5850 5849 5847 5847 5847 5846 5844 5843 5841 5840 5839 5836 5835 5833 5831 5828 5825 5822
5917 5916 5914 5910 5910 5908 5907 5903 5901 5899 5896 5892 5888 5885 5882 5880 5878 5876 5874 5871 5868 5867 5865 5862 5860 5858 5856 5853 5851 5849 5847 5846 5846 5846 5846 5847 5845 5843 5841 5839 5837 5836 5833 5831 5828 5824 5822 5820 5817
5916 5914 5913 5908 5906 5905 5904 5901 5899 5896 5893 5890 5886 5883 5880 5877 5875 5873 5871 5868 5866 5864 5862 5861 5858 5856 5855 5851 5848 5847 5844 5844 5844 5844 5844 5843 5842 5841 5840 5837 5835 5832 5830 5827 5824 5820 5816 5814 5811
5910 5910 5906 5902 5902 5902 5899 5897 5894 5892 5890 5887 5885 5881 5877 5875 5872 5870 5868 5866 5864 5862 5860 5858 5857 5855 5853 5851 5846 5844 5842 5842 5841 5842 5841 5840 5839 5838 5837 5834 5832 5830 5827 5824 5821 5817 5813 5809 5805
5906 5905 5902 5900 5897 5896 5895 5894 5890 5886 5884 5882 5881 5878 5876 5873 5870 5868 5866 5864 5862 5860 5859 5857 5854 5854 5851 5848 5846 5843 5841 5841 5841 5839 5839 5838 5837 5835 5833 5830 5827 5825 5822 5819 5816 5812 5808 5804 5800
5901 5901 5898 5894 5891 5891 5889 5888 5885 5882 5879 5877 5877 5874 5870 5870 5868 5865 5864 5862 5860 5859 5857 5854 5852 5851 5850 5847 5845 5844 5841 5841 5840 5838 5837 5835 5834 5832 5831 5828 5826 5823 5820 5816 5812 5808 5804 5800 5796
5895 5897 5894 5891 5887 5885 5882 5879 5877 5878 5874 5872 5872 5872 5869 5867 5866 5862 5861 5860 5858 5856 5855 5853 5852 5851 5848 5846 5844 5842 5840 5838 5838 5837 5835 5833 5832 5831 5828 5825 5823 5820 5816 5812 5808 5803 5798 5794 5789
5890 5890 5889 5886 5882 5878 5875 5872 5870 5872 5870 5868 5868 5867 5866 5863 5863 5860 5858 5857 5855 5854 5852 5850 5850 5849 5848 5844 5842 5841 5837 5837 5835 5834 5834 5831 5829 5828 5824 5821 5818 5815 5811 5808 5803 5797 5792 5788 5783
5883 5883 5884 5879 5876 5871 5868 5867 5866 5867 5866 5864 5863 5862 5861 5861 5861 5857 5855 5854 5852 5851 5849 5848 5846 5845 5845 5843 5840 5838 5836 5834 5833 5832 5831 5830 5827 5823 5820 5817 5814 5811 5807 5803 5798 5792 5786 5783 5778
5873 5876 5877 5873 5869 5867 5865 5864 5863 5863 5862 5861 5859 5858 5857 5857 5858 5855 5853 5852 5851 5849 5847 5844 5843 5842 5841 5839 5836 5833 5832 5832 5830 5829 5826 5825 5823 5819 5816 5813 5810 5805 5802 5797 5793 5788 5782 5775 5771
5866 5869 5870 5868 5865 5859 5860 5857 5859 5859 5859 5856 5855 5853 5853 5852 5853 5851 5849 5849 5847 5845 5842 5840 5838 5838 5836 5835 5833 5830 5828 5826 5825 5824 5823 5821 5818 5815 5811 5808 5804 5800 5796 5791 5787 5782 5777 5771 5764
5857 5862 5860 5860 5858 5854 5855 5853 5852 5853 5854 5855 5853 5851 5849 5848 5848 5847 5846 5845 5843 5841 5839 5837 5834 5834 5833 5831 5830 5827 5825 5824 5822 5820 5816 5814 5812 5810 5806 5802 5798 5794 5789 5784 5779 5775 5770 5765 5760
5846 5852 5850 5850 5849 5846 5846 5846 5843 5845 5846 5849 5849 5846 5845 5844 5843 5843 5841 5840 5838 5836 5835 5833 5831 5829 5828 5827 5826 5824 5822 5820 5817 5815 5812 5810 5807 5802 5799 5795 5791 5787 5782 5777 5772 5767 5762 5757 5752
5839 5839 5841 5840 5839 5835 5843 5839 5833 5835 5838 5840 5841 5840 5839 5839 5839 5838 5837 5836 5833 5832 5830 5829 5827 5825 5823 5822 5821 5819 5817 5815 5812 5810 5808 5804 5800 5796 5793 5790 5785 5780 5775 5769 5764 5758 5753 5748 5743
5827 5829 5830 5829 5828 5827 5835 5830 5827 5824 5829 5831 5833 5833 5834 5834 5834 5833 5832 5830 5828 5827 5826 5823 5822 5821 5818 5816 5815 5812 5812 5810 5808 5805 5801 5797 5794 5791 5787 5783 5778 5773 5768 5762 5757 5751 5745 5739 5733
5818 5821 5820 5819 5820 5822 5821 5816 5815 5820 5822 5824 5826 5827 5827 5827 5828 5828 5827 5825 5824 5822 5820 5819 5816 5815 5813 5811 5810 5809 5808 5805 5802 5799 5795 5792 5789 5785 5781 5776 5771 5766 5760 5755 5749 5743 5737 5731 5725
5808 5807 5816 5811 5810 5808 5810 5809 5806 5813 5815 5818 5821 5822 5822 5822 5822 5821 5821 5821 5819 5816 5815 5814 5812 5809 5807 5806 5805 5802 5801 5798 5796 5793 5790 5786 5783 5779 5775 5769 5763 5757 5751 5746 5740 5734 5728 5722 5715
5794 5804 5803 5800 5801 5799 5799 5800 5800 5806 5810 5810 5814 5814 5817 5818 5818 5818 5817 5816 5813 5811 5809 5808 5808 5805 5803 5800 5799 5796 5794 5792 5789 5786 5783 5780 5775 5771 5766 5761 5755 5748 5742 5736 5731 5725 5719 5712 5705
5789 5790 5793 5795 5793 5791 5791 5793 5799 5800 5802 5804 5807 5810 5811 5812 5813 5813 5811 5809 5807 5805 5803 5802 5802 5801 5798 5795 5793 5790 5788 5785 5782 5779 5775 5771 5767 5762 5757 5752 5746 5740 5733 5727 5720 5715 5709 5702 5695
5781 5785 5787 5783 5787 5785 5786 5786 5792 5796 5794 5798 5800 5803 5805 5806 5808 5805 5804 5803 5802 5800 5798 5797 5796 5795 5793 5790 5788 5785 5782 5779 5776 5772 5768 5764 5759 5754 5748 5742 5737 5731 5724 5717 5710 5705 5698 5691 5684